| time (UTC) | temp F | wind direction | speed MPH | gust MPH | rain 1hr in | rain 24hr in | rain mn in | humidity % | barometer mb |
| 20260502163516 | 52 | 154 | 1.0 | 5.0 | 0.00 | 0.03 | 0.03 | 82 | 1012.1 |
| 20260502162516 | 52 | 168 | 1.0 | 7.0 | 0.00 | 0.03 | 0.03 | 81 | 1012.2 |
| 20260502161516 | 52 | 148 | 1.0 | 2.0 | 0.00 | 0.03 | 0.03 | 81 | 1012.2 |
| 20260502160616 | 52 | 147 | 0.0 | 3.0 | 0.00 | 0.03 | 0.03 | 80 | 1012.3 |
| 20260502151516 | 51 | 163 | 1.0 | 2.0 | 0.00 | 0.03 | 0.03 | 82 | 1012.9 |
| 20260502150516 | 51 | 162 | 1.0 | 4.0 | 0.00 | 0.03 | 0.03 | 83 | 1013.0 |
| 20260502130515 | 47 | 196 | 1.0 | 2.0 | 0.01 | 0.03 | 0.03 | 95 | 1012.8 |
| 20260502123515 | 46 | 192 | 1.0 | 2.0 | 0.03 | 0.03 | 0.03 | 94 | 1012.8 |
| 20260502122515 | 46 | 192 | 0.0 | 1.0 | 0.03 | 0.03 | 0.03 | 94 | 1013.0 |
| 20260502121515 | 46 | 193 | 1.0 | 2.0 | 0.03 | 0.03 | 0.03 | 94 | 1013.1 |
| 20260502120515 | 46 | 193 | 0.0 | 1.0 | 0.02 | 0.02 | 0.02 | 93 | 1013.6 |
| 20260502115515 | 46 | 193 | 0.0 | 2.0 | 0.02 | 0.02 | 0.02 | 93 | 1013.8 |
| 20260502114515 | 46 | 193 | 0.0 | 1.0 | 0.01 | 0.01 | 0.01 | 93 | 1013.7 |
| 20260502113515 | 46 | 192 | 0.0 | 2.0 | 0.00 | 0.00 | 0.00 | 93 | 1013.7 |
| 20260502112515 | 46 | 0.0 | 0.0 | 0.00 | 0.00 | 0.00 | 93 | 1013.8 | |
| 20260502111516 | 46 | 0.0 | 1.0 | 0.00 | 0.00 | 0.00 | 93 | 1013.5 | |
| 20260502110515 | 45 | 191 | 0.0 | 1.0 | 0.00 | 0.00 | 0.00 | 92 | 1013.5 |
| 20260502105515 | 45 | 191 | 1.0 | 2.0 | 0.00 | 0.00 | 0.00 | 92 | 1013.4 |
| 20260502104515 | 45 | 191 | 0.0 | 1.0 | 0.00 | 0.00 | 0.00 | 91 | 1012.9 |
| 20260502103515 | 45 | 0.0 | 0.0 | 0.00 | 0.00 | 0.00 | 91 | 1012.8 | |
| 20260502102515 | 45 | 0.0 | 0.0 | 0.00 | 0.00 | 0.00 | 91 | 1012.7 | |
| 20260502101515 | 45 | 0.0 | 0.0 | 0.00 | 0.00 | 0.00 | 91 | 1012.7 | |
| 20260502100515 | 45 | 0.0 | 1.0 | 0.00 | 0.00 | 0.00 | 90 | 1012.8 | |
| 20260502091516 | 46 | 192 | 0.0 | 1.0 | 0.00 | 0.00 | 0.00 | 89 | 1012.6 |
| 20260502090515 | 46 | 192 | 0.0 | 1.0 | 0.00 | 0.00 | 0.00 | 88 | 1012.4 |
| 20260502071515 | 47 | 178 | 1.0 | 3.0 | 0.00 | 0.00 | 0.00 | 82 | 1012.7 |
| 20260502070515 | 47 | 178 | 1.0 | 3.0 | 0.00 | 0.00 | 0.00 | 82 | 1012.6 |
| 20260502065516 | 47 | 178 | 1.0 | 3.0 | 0.00 | 0.00 | 0.00 | 82 | 1012.6 |
| 20260502064515 | 47 | 178 | 1.0 | 2.0 | 0.00 | 0.00 | 0.00 | 81 | 1012.6 |
| 20260502063621 | 48 | 178 | 0.0 | 2.0 | 0.00 | 0.00 | 0.00 | 81 | 1012.6 |
| 20260502062615 | 48 | 178 | 1.0 | 2.0 | 0.00 | 0.00 | 0.00 | 80 | 1012.7 |
| 20260502061515 | 48 | 178 | 1.0 | 3.0 | 0.00 | 0.00 | 0.00 | 80 | 1012.8 |
| 20260502060516 | 48 | 174 | 2.0 | 5.0 | 0.00 | 0.00 | 0.00 | 79 | 1012.8 |
| 20260502055617 | 48 | 205 | 2.0 | 5.0 | 0.00 | 0.00 | 0.00 | 79 | 1012.9 |
| 20260502054617 | 48 | 158 | 2.0 | 4.0 | 0.00 | 0.00 | 0.00 | 79 | 1013.0 |
| 20260502053517 | 48 | 163 | 2.0 | 4.0 | 0.00 | 0.00 | 0.00 | 78 | 1013.0 |
| 20260502052517 | 49 | 167 | 2.0 | 5.0 | 0.00 | 0.00 | 0.00 | 77 | 1013.0 |
| 20260502051517 | 49 | 172 | 1.0 | 5.0 | 0.00 | 0.00 | 0.00 | 77 | 1013.1 |
| 20260502050518 | 49 | 172 | 1.0 | 3.0 | 0.00 | 0.00 | 0.00 | 77 | 1013.2 |
| 20260502045517 | 49 | 172 | 1.0 | 3.0 | 0.00 | 0.00 | 0.00 | 77 | 1013.2 |
| 20260502044517 | 49 | 171 | 1.0 | 2.0 | 0.00 | 0.00 | 0.00 | 77 | 1013.2 |
| 20260502043517 | 49 | 171 | 1.0 | 4.0 | 0.00 | 0.00 | 0.00 | 76 | 1013.3 |
| 20260502042517 | 49 | 171 | 1.0 | 2.0 | 0.00 | 0.00 | 0.00 | 75 | 1013.2 |
| 20260502041516 | 49 | 171 | 1.0 | 4.0 | 0.00 | 0.00 | 0.00 | 75 | 1013.1 |
| 20260502040517 | 49 | 162 | 1.0 | 2.0 | 0.00 | 0.00 | 0.00 | 75 | 1013.1 |
| 20260502035516 | 49 | 161 | 0.0 | 2.0 | 0.00 | 0.00 | 0.00 | 74 | 1013.1 |
| 20260502034617 | 49 | 161 | 1.0 | 2.0 | 0.00 | 0.00 | 0.00 | 74 | 1013.2 |
| 20260502033516 | 50 | 161 | 1.0 | 4.0 | 0.00 | 0.00 | 0.00 | 73 | 1013.3 |
| 20260502032516 | 50 | 161 | 1.0 | 4.0 | 0.00 | 0.00 | 0.00 | 73 | 1013.2 |
| 20260502031518 | 50 | 161 | 1.0 | 4.0 | 0.00 | 0.00 | 0.00 | 72 | 1013.0 |
| 20260502030516 | 50 | 161 | 1.0 | 4.0 | 0.00 | 0.00 | 0.00 | 71 | 1013.0 |
| 20260502025516 | 50 | 161 | 1.0 | 4.0 | 0.00 | 0.00 | 0.00 | 71 | 1013.1 |
| 20260502024616 | 50 | 161 | 1.0 | 4.0 | 0.00 | 0.00 | 0.00 | 71 | 1013.1 |
| 20260502023516 | 51 | 161 | 2.0 | 4.0 | 0.00 | 0.00 | 0.00 | 70 | 1013.1 |
| 20260502022516 | 51 | 161 | 1.0 | 2.0 | 0.00 | 0.00 | 0.00 | 69 | 1013.1 |
| 20260502021518 | 51 | 161 | 2.0 | 5.0 | 0.00 | 0.00 | 0.00 | 69 | 1013.1 |
| 20260502020516 | 51 | 159 | 1.0 | 5.0 | 0.00 | 0.00 | 0.00 | 68 | 1013.1 |
| 20260502015517 | 52 | 167 | 2.0 | 6.0 | 0.00 | 0.00 | 0.00 | 67 | 1013.1 |
| 20260502014516 | 52 | 185 | 2.0 | 4.0 | 0.00 | 0.00 | 0.00 | 66 | 1013.0 |
| 20260502013517 | 52 | 190 | 2.0 | 8.0 | 0.00 | 0.00 | 0.00 | 65 | 1012.9 |
| 20260502012517 | 52 | 187 | 2.0 | 4.0 | 0.00 | 0.00 | 0.00 | 64 | 1012.9 |
| 20260502011517 | 53 | 187 | 2.0 | 5.0 | 0.00 | 0.00 | 0.00 | 62 | 1012.7 |
| 20260502010516 | 53 | 192 | 2.0 | 3.0 | 0.00 | 0.00 | 0.00 | 60 | 1012.6 |
| 20260502005616 | 53 | 197 | 2.0 | 4.0 | 0.00 | 0.00 | 0.00 | 57 | 1012.4 |
| 20260502004516 | 54 | 205 | 2.0 | 4.0 | 0.00 | 0.00 | 0.00 | 53 | 1012.3 |
| 20260502003516 | 54 | 186 | 2.0 | 4.0 | 0.00 | 0.00 | 0.00 | 50 | 1012.1 |
| 20260502002516 | 55 | 175 | 2.0 | 3.0 | 0.00 | 0.00 | 0.00 | 49 | 1012.1 |
| 20260502001516 | 55 | 193 | 2.0 | 4.0 | 0.00 | 0.00 | 0.00 | 49 | 1011.8 |
| 20260502000516 | 56 | 185 | 2.0 | 3.0 | 0.00 | 0.00 | 0.00 | 48 | 1011.6 |
| 20260501235516 | 56 | 183 | 1.0 | 3.0 | 0.00 | 0.00 | 0.00 | 47 | 1011.5 |
| 20260501234617 | 57 | 167 | 2.0 | 4.0 | 0.00 | 0.00 | 0.00 | 46 | 1011.3 |
| 20260501233517 | 57 | 165 | 1.0 | 2.0 | 0.00 | 0.00 | 0.00 | 45 | 1011.2 |
| 20260501232516 | 58 | 0.0 | 0.0 | 0.00 | 0.00 | 0.00 | 44 | 1011.1 | |
| 20260501231517 | 59 | 0.0 | 1.0 | 0.00 | 0.00 | 0.00 | 44 | 1011.0 | |
| 20260501230516 | 59 | 164 | 0.0 | 2.0 | 0.00 | 0.00 | 0.00 | 43 | 1011.0 |
| 20260501225516 | 60 | 128 | 0.0 | 3.0 | 0.00 | 0.00 | 0.00 | 41 | 1010.9 |
| 20260501224516 | 60 | 164 | 1.0 | 5.0 | 0.00 | 0.00 | 0.00 | 40 | 1010.6 |
| 20260501223516 | 61 | 344 | 1.0 | 4.0 | 0.00 | 0.00 | 0.00 | 40 | 1010.7 |
| 20260501222516 | 61 | 16 | 1.0 | 4.0 | 0.00 | 0.00 | 0.00 | 39 | 1010.7 |
| 20260501221516 | 61 | 36 | 1.0 | 4.0 | 0.00 | 0.00 | 0.00 | 39 | 1010.7 |
| 20260501220516 | 61 | 281 | 1.0 | 3.0 | 0.00 | 0.00 | 0.00 | 40 | 1010.7 |
| 20260501215516 | 61 | 17 | 1.0 | 4.0 | 0.00 | 0.00 | 0.00 | 42 | 1010.9 |
| 20260501214516 | 61 | 183 | 1.0 | 3.0 | 0.00 | 0.00 | 0.00 | 40 | 1010.7 |
| 20260501213516 | 61 | 187 | 1.0 | 3.0 | 0.00 | 0.00 | 0.00 | 41 | 1010.8 |
| 20260501212517 | 61 | 174 | 1.0 | 6.0 | 0.00 | 0.00 | 0.00 | 40 | 1010.7 |
| 20260501211516 | 61 | 176 | 2.0 | 5.0 | 0.00 | 0.00 | 0.00 | 41 | 1010.7 |
| 20260501210516 | 61 | 73 | 1.0 | 6.0 | 0.00 | 0.00 | 0.00 | 40 | 1010.5 |
| 20260501205516 | 61 | 25 | 2.0 | 7.0 | 0.00 | 0.00 | 0.00 | 41 | 1010.6 |
| 20260501204516 | 60 | 184 | 2.0 | 5.0 | 0.00 | 0.00 | 0.00 | 41 | 1010.6 |
| 20260501203516 | 60 | 48 | 2.0 | 8.0 | 0.00 | 0.00 | 0.00 | 40 | 1010.5 |
| 20260501202516 | 60 | 21 | 1.0 | 5.0 | 0.00 | 0.00 | 0.00 | 39 | 1010.5 |
| 20260501201516 | 61 | 284 | 1.0 | 4.0 | 0.00 | 0.00 | 0.00 | 39 | 1010.7 |
| 20260501200516 | 61 | 149 | 1.0 | 5.0 | 0.00 | 0.00 | 0.00 | 39 | 1010.6 |
| 20260501195516 | 62 | 142 | 2.0 | 6.0 | 0.00 | 0.00 | 0.00 | 38 | 1010.6 |
| 20260501194616 | 62 | 37 | 2.0 | 7.0 | 0.00 | 0.00 | 0.00 | 37 | 1010.8 |
| 20260501193516 | 62 | 211 | 2.0 | 10.0 | 0.00 | 0.00 | 0.00 | 37 | 1010.8 |
| 20260501192718 | 62 | 305 | 3.0 | 8.0 | 0.00 | 0.00 | 0.00 | 36 | 1011.1 |
| 20260501191516 | 63 | 292 | 2.0 | 7.0 | 0.00 | 0.00 | 0.00 | 36 | 1011.1 |
| 20260501190515 | 63 | 15 | 2.0 | 8.0 | 0.00 | 0.00 | 0.00 | 37 | 1011.2 |
| 20260501185516 | 63 | 203 | 2.0 | 7.0 | 0.00 | 0.00 | 0.00 | 36 | 1011.4 |
| 20260501184716 | 63 | 282 | 3.0 | 8.0 | 0.00 | 0.00 | 0.00 | 37 | 1011.5 |
| 20260501183516 | 62 | 209 | 2.0 | 9.0 | 0.00 | 0.00 | 0.00 | 39 | 1011.4 |
| 20260501182616 | 61 | 19 | 2.0 | 7.0 | 0.00 | 0.00 | 0.00 | 41 | 1011.5 |
| 20260501181617 | 61 | 40 | 2.0 | 6.0 | 0.00 | 0.00 | 0.00 | 43 | 1011.4 |
| 20260501180515 | 62 | 105 | 2.0 | 8.0 | 0.00 | 0.00 | 0.00 | 42 | 1011.5 |
| 20260501175515 | 62 | 352 | 3.0 | 8.0 | 0.00 | 0.00 | 0.00 | 42 | 1011.7 |
| 20260501174616 | 62 | 291 | 3.0 | 8.0 | 0.00 | 0.00 | 0.00 | 42 | 1011.7 |
| 20260501173515 | 62 | 202 | 2.0 | 5.0 | 0.00 | 0.00 | 0.00 | 45 | 1011.7 |
| 20260501172516 | 61 | 17 | 1.0 | 5.0 | 0.00 | 0.00 | 0.00 | 45 | 1011.8 |
| 20260501171516 | 60 | 259 | 1.0 | 8.0 | 0.00 | 0.00 | 0.00 | 47 | 1011.8 |
| 20260501170515 | 59 | 264 | 2.0 | 8.0 | 0.00 | 0.00 | 0.00 | 47 | 1012.0 |
| 20260501165617 | 58 | 204 | 1.0 | 6.0 | 0.00 | 0.00 | 0.00 | 48 | 1012.0 |
| 20260501164617 | 58 | 241 | 2.0 | 5.0 | 0.00 | 0.00 | 0.00 | 48 | 1012.1 |